THURAYA-4

Last updated on Mon Sep 07 2026 00:03:02 GMT+0000 (Coordinated Universal Time)

1 62483U 25001A 26249.60057503 .00000123 00000+0 00000+0 0 9994 2 62483 0.0181 100.7266 0000169 158.4630 347.0114 1.00272144 4993
UTC large
Height (km)
Speed (km/s)
/
Latitude / Longitude
Inclination (degrees)
Orbital Period (minutes)
Azimuth
Elevation
Range (km)
Doppler Factor

Next 0 passes for location: London (51.5072 / 0.1276)

No passes found over London.
THURAYA-4